Voltar ao catálogo

STARLINK-31607

AtivoComunicaçõesVLEO
NORAD 59394·PAYLOAD·🇺🇸 United States

Lançado Apr 2, 2024 de Vandenberg Space Force Base

Loading…

Próximas Passagens (próximas 24 horas)

TLE

AtualizadoSource: CelesTrak SupGP

Época: Sep 15, 2026, 03:12 UTC

1 59394C 24062W   26258.13381944 -.00011770  00000+0 -34777-3 0  2586
2 59394  53.1562  92.7888 0001248  86.9239  48.7613 15.34395352    18

Acompanhe STARLINK-31607 em tempo real com AllMySat

Download on the App Store